User: anonymous   Login
Location: Clinton NY
(43.0598°N, 75.3602°W)
Time: 04:31:39
(UTC-04:00)
Language:

Iridium 11 - Orbit

View from above orbital plane
View from above orbital plane
View from above satellite
View from above satellite

Ground track
Ground track

The orbit data is extracted from the following two-line orbital elements,

1 25578U 98074B   14296.51103316  .00000269  00000-0  88895-4 0   762
2 25578 086.3926 300.0975 0002225 109.8906 000.2358 14.34218183838700
Epoch (UTC): 23 October 2014 12:15:53
Eccentricity: 0.0002225
inclination: 86.3926°
perigee height: 776 km
apogee height: 779 km
right ascension of ascending node: 300.0975°
argument of perigee: 109.8906°
revolutions per day: 14.34218183
mean anomaly at epoch: 0.2358°
orbit number at epoch: 83870

The dashed part of the orbit path shows where the satellite is in the earth's shadow,  

DLR